EW5461 Weather Reports


Display with metric or nautical units.
time (UTC)temp
F
wind
direction
speed
MPH
gust
MPH
rain 1hr
in
rain 24hr
in
rain mn
in
humidity
%
barometer
mb
20260502163029 67 296 2.0 8.0 0.00 0.00 0.00 53 1021.9
20260502161525 66 5 1.0 8.0 0.00 0.00 0.00 58 1021.8
20260502151511 63 345 3.0 8.0 0.00 0.00 0.00 73 1021.6
20260502123042 51 306 0.0 4.0 0.00 0.00 0.00 89 1020.7
20260502121539 51 298 0.0 4.0 0.00 0.00 0.00 89 1020.3
20260502114538 51 5 0.0 5.0 0.00 0.00 0.00 89 1019.7
20260502113033 51 5 1.0 4.0 0.00 0.00 0.00 89 1019.6
20260502111530 51 5 3.0 5.0 0.00 0.00 0.00 90 1019.2
20260502110028 51 13 0.0 2.0 0.00 0.00 0.00 89 1019.0
20260502104538 51 355 2.0 5.0 0.00 0.01 0.00 89 1018.8
20260502103026 51 168 2.0 5.0 0.00 0.01 0.00 88 1018.8
20260502101525 52 168 1.0 2.0 0.00 0.01 0.00 88 1018.8
20260502091522 53 168 0.0 3.0 0.00 0.01 0.00 85 1018.5
20260502071510 53 168 0.0 0.0 0.00 0.01 0.00 84 1018.6
20260502070014 53 168 0.0 0.0 0.00 0.01 0.00 83 1018.8
20260502064515 53 168 0.0 0.0 0.00 0.01 0.00 81 1018.7
20260502063002 54 168 0.0 0.0 0.00 0.01 0.00 82 1018.7
20260502061559 54 168 0.0 0.0 0.00 0.01 0.00 80 1018.6
20260502060110 55 168 0.0 3.0 0.00 0.01 0.00 80 1018.6
20260502054556 55 168 2.0 4.0 0.00 0.01 0.00 81 1018.6
20260502053101 55 154 0.0 1.0 0.00 0.01 0.00 82 1018.8
20260502051600 55 154 0.0 0.0 0.00 0.01 0.00 81 1018.7
20260502050057 55 154 0.0 0.0 0.00 0.01 0.00 80 1018.7
20260502044549 56 154 0.0 0.0 0.00 0.01 0.01 78 1018.6
20260502043051 57 154 0.0 0.0 0.00 0.01 0.01 77 1018.7
20260502041548 57 154 0.0 0.0 0.00 0.01 0.01 77 1018.6
20260502040049 57 154 0.0 0.0 0.00 0.01 0.01 75 1018.4
20260502034545 58 154 0.0 0.0 0.00 0.01 0.01 73 1018.4
20260502033043 58 154 0.0 2.0 0.00 0.01 0.01 72 1018.3
20260502031543 59 154 0.0 2.0 0.00 0.01 0.01 71 1018.0
20260502030039 59 100 0.0 0.0 0.00 0.01 0.01 70 1017.8
20260502024539 59 100 0.0 1.0 0.00 0.01 0.01 71 1017.8
20260502023036 60 100 0.0 0.0 0.00 0.01 0.01 72 1017.5
20260502021535 60 100 0.0 0.0 0.00 0.01 0.01 71 1017.3
20260502020033 61 100 0.0 0.0 0.00 0.01 0.01 71 1017.2
20260502014533 61 100 0.0 2.0 0.00 0.01 0.01 69 1017.0
20260502013031 61 100 0.0 0.0 0.00 0.01 0.01 69 1016.6
20260502011550 61 100 0.0 0.0 0.00 0.01 0.01 68 1016.3
20260502010028 62 100 0.0 0.0 0.00 0.01 0.01 69 1016.0
20260502004547 62 100 0.0 0.0 0.00 0.01 0.01 70 1015.6
20260502003029 62 100 0.0 0.0 0.00 0.01 0.01 68 1015.3
20260502001527 62 100 0.0 1.0 0.00 0.01 0.01 68 1015.1
20260502000026 62 30 0.0 2.0 0.00 0.01 0.01 67 1014.9
20260501234531 63 355 0.0 2.0 0.00 0.01 0.01 67 1015.0
20260501233025 63 42 1.0 3.0 0.00 0.01 0.01 65 1014.8
20260501231536 63 82 2.0 4.0 0.00 0.01 0.01 65 1014.7
20260501230024 63 5 1.0 4.0 0.00 0.01 0.01 65 1014.7
20260501224523 63 94 0.0 3.0 0.00 0.01 0.01 68 1014.6
20260501223022 62 111 0.0 3.0 0.00 0.01 0.01 69 1014.7
20260501221522 63 66 0.0 1.0 0.00 0.01 0.01 69 1014.8
20260501220035 63 24 0.0 3.0 0.00 0.01 0.01 65 1014.8
20260501214520 63 355 1.0 5.0 0.00 0.01 0.01 64 1014.5
20260501213028 63 26 2.0 8.0 0.00 0.01 0.01 62 1014.6
20260501211520 63 76 3.0 11.0 0.00 0.01 0.01 61 1014.9
20260501210018 63 65 4.0 10.0 0.00 0.01 0.01 60 1015.1
20260501204517 62 62 2.0 12.0 0.00 0.01 0.01 61 1015.5
20260501203019 62 50 4.0 9.0 0.00 0.01 0.01 61 1015.8
20260501201516 62 5 3.0 10.0 0.00 0.01 0.01 62 1015.9
20260501200015 62 41 1.0 5.0 0.00 0.01 0.01 63 1015.9
20260501194517 62 23 5.0 13.0 0.00 0.01 0.01 62 1015.6
20260501193027 63 55 5.0 14.0 0.00 0.01 0.01 62 1015.2
20260501191516 63 45 5.0 12.0 0.00 0.01 0.01 60 1015.2
20260501190039 63 346 2.0 7.0 0.00 0.01 0.01 60 1014.8
20260501184520 64 81 1.0 8.0 0.00 0.01 0.01 56 1015.3
20260501183019 63 91 3.0 11.0 0.00 0.01 0.01 58 1015.1
20260501181511 63 63 3.0 10.0 0.00 0.01 0.01 58 1015.2
20260501180011 63 84 2.0 12.0 0.00 0.01 0.01 57 1015.4